DW4827 Weather Reports


time (UTC)temp
C
wind
direction
speed
KPH
gust
KPH
rain 1hr
cm
rain 24hr
cm
rain mn
cm
humidity
%
barometer
mb
20260505102005 10 328 0.0 0.0 0.00 0.00 0.00 94 1011.3
20260505101005 10 328 0.0 0.0 0.00 0.00 0.00 93 1011.3
20260505095006 11 328 0.0 0.0 0.00 0.00 0.00 93 1010.9
20260505094005 11 328 0.0 0.0 0.00 0.00 0.00 93 1010.9
20260505093005 11 328 0.0 0.0 0.00 0.00 0.00 93 1010.8
20260505092006 11 328 0.0 0.0 0.00 0.00 0.00 93 1010.8
20260505091005 11 328 0.0 0.0 0.00 0.00 0.00 92 1010.8
20260505090005 11 328 0.0 0.0 0.00 0.00 0.00 92 1010.3
20260505082005 12 328 0.0 0.0 0.00 0.00 0.00 91 1010.3
20260505081004 12 328 0.0 0.0 0.00 0.00 0.00 90 1010.3
20260505080005 12 328 0.0 0.0 0.00 0.00 0.00 90 1010.3
20260505075005 12 328 0.0 0.0 0.00 0.00 0.00 89 1010.2
20260505074005 12 328 0.0 0.0 0.00 0.00 0.00 89 1010.2
20260505073005 13 328 0.0 0.0 0.00 0.00 0.00 88 1009.6
20260505072005 13 328 0.0 0.0 0.00 0.00 0.00 87 1009.6
20260505071005 13 328 0.0 3.2 0.00 0.00 0.00 87 1009.6
20260505070005 13 329 1.6 3.2 0.00 0.00 0.00 86 1009.6
20260505065005 13 123 0.0 3.2 0.00 0.00 0.00 86 1009.2
20260505064005 13 123 0.0 0.0 0.00 0.00 0.00 85 1009.2
20260505063005 14 123 0.0 0.0 0.00 0.00 0.00 85 1009.2
20260505062005 14 123 0.0 1.6 0.00 0.00 0.00 84 1009.2
20260505061005 14 123 0.0 3.2 0.00 0.00 0.00 83 1009.2
20260505060004 15 259 0.0 0.0 0.00 0.00 0.00 84 1009.0
20260505055005 15 259 1.6 4.8 0.00 0.00 0.00 83 1009.0
20260505054005 15 290 3.2 8.0 0.00 0.00 0.00 82 1009.0
20260505053005 15 288 3.2 4.8 0.00 0.00 0.00 82 1009.0
20260505041005 17 312 0.0 0.0 0.00 0.00 0.00 73 1007.7
20260505040005 18 312 0.0 0.0 0.00 0.00 0.00 72 1007.7
20260505035007 18 312 0.0 0.0 0.00 0.00 0.00 67 1007.4
20260505034007 18 312 0.0 0.0 0.00 0.00 0.00 65 1007.4
20260505033008 19 312 0.0 0.0 0.00 0.00 0.00 64 1007.4
20260505032007 20 312 0.0 0.0 0.00 0.00 0.00 62 1007.4
20260505031008 21 312 0.0 0.0 0.00 0.00 0.00 61 1007.1
20260505030007 21 312 0.0 0.0 0.00 0.00 0.00 56 1007.1
20260505025008 22 312 0.0 0.0 0.00 0.00 0.00 54 1007.1
20260505024007 23 312 0.0 1.6 0.00 0.00 0.00 51 1007.1
20260505023008 23 312 1.6 4.8 0.00 0.00 0.00 48 1007.1
20260505022008 23 304 1.6 4.8 0.00 0.00 0.00 46 1007.1
20260505021008 24 279 3.2 9.7 0.00 0.00 0.00 45 1007.2
20260505020007 24 283 3.2 8.0 0.00 0.00 0.00 46 1007.1
20260505014008 25 305 3.2 8.0 0.00 0.00 0.00 41 1007.1
20260505013007 25 303 4.8 12.9 0.00 0.00 0.00 39 1007.1
20260505012007 25 295 6.4 14.5 0.00 0.00 0.00 39 1007.3
20260505011008 25 280 8.0 19.3 0.00 0.00 0.00 39 1007.3
20260505004007 25 294 4.8 16.1 0.00 0.00 0.00 39 1007.3
20260505003008 26 304 4.8 19.3 0.00 0.00 0.00 40 1007.2
20260505002007 26 288 11.3 19.3 0.00 0.00 0.00 39 1007.2
20260505001007 26 271 9.7 19.3 0.00 0.00 0.00 37 1007.2
20260505000007 26 284 8.0 16.1 0.00 0.00 0.00 37 1007.4
20260504235008 26 301 6.4 14.5 0.00 0.00 0.00 38 1007.4
20260504234007 26 280 4.8 16.1 0.00 0.00 0.00 36 1007.4
20260504233006 27 298 6.4 19.3 0.00 0.00 0.00 35 1007.4
20260504232008 27 301 8.0 19.3 0.00 0.00 0.00 35 1007.4
20260504231008 27 308 9.7 20.9 0.00 0.00 0.00 32 1007.4
20260504230006 27 280 8.0 19.3 0.00 0.00 0.00 33 1007.7
20260504225007 27 300 8.0 16.1 0.00 0.00 0.00 36 1007.7
20260504224006 27 274 9.7 19.3 0.00 0.00 0.00 36 1007.7
20260504223007 27 267 6.4 19.3 0.00 0.00 0.00 38 1007.8
20260504222006 27 275 12.9 19.3 0.00 0.00 0.00 35 1008.1
20260504221007 27 296 11.3 19.3 0.00 0.00 0.00 37 1008.1
20260504220006 27 276 4.8 24.1 0.00 0.00 0.00 35 1008.1
20260504215007 27 300 6.4 19.3 0.00 0.00 0.00 36 1008.1
20260504214006 27 263 8.0 19.3 0.00 0.00 0.00 36 1008.1
20260504212007 27 307 9.7 20.9 0.00 0.00 0.00 36 1008.2
20260504211008 27 288 9.7 16.1 0.00 0.00 0.00 38 1008.3
20260504204006 26 327 9.7 19.3 0.00 0.00 0.00 35 1008.4
20260504203007 27 288 11.3 19.3 0.00 0.00 0.00 37 1008.4
20260504202007 27 316 9.7 19.3 0.00 0.00 0.00 40 1008.5
20260504201006 26 274 8.0 12.9 0.00 0.00 0.00 43 1008.5
20260504200008 26 330 9.7 19.3 0.00 0.00 0.00 41 1008.7
20260504195005 26 292 8.0 19.3 0.00 0.00 0.00 44 1008.7
20260504194006 26 269 9.7 19.3 0.00 0.00 0.00 42 1008.8
20260504192006 25 269 11.3 19.3 0.00 0.00 0.00 43 1008.9
20260504191007 25 267 8.0 19.3 0.00 0.00 0.00 42 1008.9
20260504190006 25 274 4.8 14.5 0.00 0.00 0.00 41 1008.9
20260504184006 25 274 8.0 16.1 0.00 0.00 0.00 43 1009.1
20260504183006 25 337 3.2 11.3 0.00 0.00 0.00 43 1009.1
20260504182006 25 322 6.4 9.7 0.00 0.00 0.00 42 1009.1
20260504181007 25 294 8.0 16.1 0.00 0.00 0.00 45 1009.0
20260504180006 25 327 4.8 16.1 0.00 0.00 0.00 44 1009.0
20260504175007 24 313 6.4 16.1 0.00 0.00 0.00 44 1009.0
20260504174006 24 354 3.2 16.1 0.00 0.00 0.00 49 1009.0
20260504173007 23 272 6.4 16.1 0.00 0.00 0.00 51 1009.1
20260504172006 23 284 4.8 8.0 0.00 0.00 0.00 54 1009.1
20260504171007 22 279 6.4 9.7 0.00 0.00 0.00 54 1009.1
20260504151006 12 337 0.0 0.0 0.00 0.00 0.00 91 1008.9